Location: Berlise
(49.6641°N, 4.1077°E)
Time: 22:48:47
(UTC+00:00)

SKYMED 2 - Pass Details

Date: 27 January 2021
Orbit: 621 x 623 km, 97.9° (Epoch: 01 March)

Event Time Altitude Azimuth Distance (km) Brightness Sun altitude
Rises 04:18:30 0° 150° (SSE) 2,894 7.3 -29.7°
Reaches altitude 10° 04:20:43 10° 145° (SE) 1,992 6.5 -29.3°
Enters shadow 04:24:34 48° 87° (E) 815 4.4 -28.7°
